Regional Weather Roundup
Issued by NWS Jackson, KY

Home | Current Version | Previous Version | Text Only | Print | Product List | Glossary On
Versions: 1 2 3 4 5 6 7 8 9 10 11 12 13 14 15 16 17 18 19 20 21 22 23 24 25 26 27 28 29 30 31 32 33 34 35 36 37 38 39 40 41 42 43 44 45 46 47 48 49 50
000
ASUS43 KJKL 230705
RWRJKL

EAST KENTUCKY HOURLY WEATHER ROUNDUP
NATIONAL WEATHER SERVICE JACKSON KY
300 AM EDT TUE SEP 23 2014

NOTE: "FAIR" INDICATES FEW OR NO CLOUDS BELOW 12,000 FEET WITH
NO SIGNIFICANT WEATHER AND/OR OBSTRUCTIONS TO VISIBILITY.

* THESE REPORTS ARE NOT UNDER NWS QUALITY CONTROL AND MAY NOT
  REPORT WEATHER SUCH AS PRECIPITATION AND FOG.

KYZ079-080-083-085-087-088-110-112-115-119-120-230800
...EASTERN KENTUCKY...

CITY           SKY/WX    TMP DP  RH WIND       PRES   REMARKS
JACKSON        CLEAR     52  44  74 CALM      30.26F
LONDON         CLEAR     49  46  90 N3        30.26S
SOMERSET*      CLEAR     46  45  93 CALM      30.27S
MONTICELLO*    CLEAR     43  43 100 CALM      30.27S
WILLIAMSBURG*  CLEAR     45  45 100 CALM      30.25S
MIDDLESBORO*   PTCLDY    46  46  98 CALM      30.26S
HARLAN APT*    CLOUDY    48  48 100 MISG      30.25F VSB<1/4
BLACK MTN*       N/A     43  43 100 N1          N/A
PIKEVILLE APT* CLEAR     50  48  93 CALM      30.26F
BIG SANDY*     PTSUNNY   47  47 100 CALM      30.27S FOG
MOREHEAD APT*  SUNNY     50  43  76 CALM      30.31R
$$

KYZ035-036-041-042-044-050-067-078-099-230800
...CENTRAL KENTUCKY...

CITY           SKY/WX    TMP DP  RH WIND       PRES   REMARKS
MT STERLING*   CLEAR     45  43  93 CALM      30.30S
FLEMING/MASON* CLEAR     46  42  88 NE3       30.30S
DANVILLE*      CLEAR     43  43 100 CALM      30.28S
RICHMOND*      CLEAR     45  43  93 CALM      30.27S
LEXINGTON      CLEAR     49  42  77 NE6       30.28S
FRANKFORT      CLEAR     45  42  89 CALM      30.27F
$$

KYZ091>093-OHZ055-061-077-WVZ005-015-034-035-042-230800
...SOUTHERN OHIO/WEST VIRGINIA...

CITY           SKY/WX    TMP DP  RH WIND       PRES   REMARKS
COVINGTON      CLEAR     48  42  80 CALM      30.29R
COLUMBUS       CLEAR     47  41  80 CALM      30.29S
DAYTON         CLEAR     47  41  80 CALM      30.30S
WILMINGTON     CLEAR     41  38  89 CALM      30.29S
HUNTINGTON     CLEAR     48  45  89 CALM      30.28S
CHARLESTON     PTCLDY    47  47 100 CALM      30.28R FOG
PINEVILLE*     CLOUDY    47  47 100 MISG      30.32S FOG
BECKLEY        CLEAR     42  40  92 SE3       30.27F
BLUEFIELD      CLEAR     46  41  82 CALM      30.28R
$$

VAZ002-007-008-TNZ017-027-036-066-071-230800
...SOUTHWEST VIRGINIA/EAST TENNESSEE...

CITY           SKY/WX    TMP DP  RH WIND       PRES   REMARKS
WISE*          CLEAR     48  43  81 NE3       30.27F
JONESVILLE*    MOSUNNY   45  45 100 CALM      30.27S
ABINGDON*      CLEAR     50  46  86 E5        30.25S
BRISTOL        CLEAR     50  46  86 CALM      30.25R
KNOXVILLE      CLEAR     54  50  86 NE8       30.21S
OAK RIDGE      CLEAR     53  49  86 CALM      30.24S
CROSSVILLE     CLEAR     50  45  83 NE5       30.23S
NASHVILLE      CLEAR     54  47  77 N3        30.24R
$$

...KEY TO REMARKS...
VSB - VISIBILITY IN MILES
WCI - WIND CHILL INDEX
HX  - HEAT INDEX

$$



USA.gov is the U.S. government's official web portal to all federal, state and local government web resources and services.